Location: Tel Aviv
(32.0670°N, 34.7670°E)
Time: 05:11:33
(UTC+03:00)

Vanguard 2 - Pass Details

Date: 27 January 2022
Orbit: 552 x 2935 km, 32.9° (Epoch: 25 May)

Event Time Altitude Azimuth Distance (km) Brightness Sun altitude
Rises 03:58:55 0° 275° (W) 6,566 - -33.6°
Reaches altitude 10° 04:05:34 10° 259° (W) 5,724 - -32.2°
Maximum altitude 04:15:13 17° 225° (SW) 5,111 - -30.2°
Exits shadow 04:15:15 17° 225° (SW) 5,111 11.3 -30.2°
Drops below altitude 10° 04:24:32 10° 191° (S) 5,436 11.8 -28.2°
Sets 04:30:43 0° 173° (S) 6,105 12.3 -26.9°
